| time (UTC) | temp C | wind direction | speed KPH | gust KPH | rain 1hr cm | rain 24hr cm | rain mn cm | humidity % | barometer mb |
| 20260901024213 | 19 | 0 | 0.0 | 0.0 | 360.60 | 0.00 | 0.00 | 83 | 1018.5 |
| 20260901023213 | 19 | 277 | 1.6 | 1.6 | 360.60 | 0.00 | 0.00 | 83 | 1018.5 |
| 20260901021714 | 19 | 0 | 0.0 | 0.0 | 360.60 | 0.00 | 0.00 | 81 | 1018.5 |
| 20260901021213 | 19 | 0 | 0.0 | 0.0 | 360.60 | 0.00 | 0.00 | 81 | 1018.4 |
| 20260901020713 | 19 | 0 | 0.0 | 0.0 | 360.60 | 0.00 | 0.00 | 81 | 1018.4 |
| 20260901020213 | 20 | 0 | 0.0 | 0.0 | 360.60 | 0.00 | 0.00 | 81 | 1018.4 |
| 20260901014715 | 20 | 0 | 0.0 | 0.0 | 360.60 | 0.00 | 0.00 | 80 | 1018.5 |
| 20260901014213 | 20 | 0 | 0.0 | 0.0 | 360.60 | 0.00 | 0.00 | 80 | 1018.5 |
| 20260901013213 | 20 | 274 | 0.0 | 3.2 | 360.60 | 0.00 | 0.00 | 80 | 1018.6 |
| 20260901012213 | 20 | 0 | 0.0 | 0.0 | 360.60 | 0.00 | 0.00 | 80 | 1018.7 |
| 20260901011714 | 20 | 0 | 0.0 | 0.0 | 360.60 | 0.00 | 0.00 | 80 | 1018.8 |
| 20260901011213 | 20 | 0 | 0.0 | 0.0 | 360.60 | 0.00 | 0.00 | 80 | 1018.8 |
| 20260901010213 | 20 | 0 | 0.0 | 0.0 | 360.60 | 0.00 | 0.00 | 80 | 1018.9 |
| 20260901005213 | 20 | 0 | 0.0 | 0.0 | 360.60 | 0.00 | 0.00 | 80 | 1018.8 |
| 20260901004721 | 20 | 0 | 0.0 | 0.0 | 360.60 | 0.00 | 0.00 | 80 | 1018.8 |
| 20260901004213 | 20 | 0 | 0.0 | 0.0 | 360.60 | 0.00 | 0.00 | 80 | 1018.7 |
| 20260901003213 | 20 | 298 | 0.0 | 3.2 | 360.60 | 0.00 | 0.00 | 79 | 1018.7 |
| 20260901002713 | 20 | 308 | 1.6 | 3.2 | 360.60 | 0.00 | 0.00 | 78 | 1018.6 |
| 20260901002212 | 20 | 0 | 0.0 | 0.0 | 360.60 | 0.00 | 0.00 | 77 | 1018.6 |
| 20260901001714 | 20 | 0 | 0.0 | 0.0 | 360.60 | 0.00 | 0.00 | 77 | 1018.6 |
| 20260901001213 | 20 | 0 | 0.0 | 0.0 | 360.60 | 0.00 | 0.00 | 76 | 1018.6 |
| 20260901000213 | 20 | 0 | 0.0 | 0.0 | 360.60 | 0.00 | 0.00 | 75 | 1018.6 |
| 20260831235712 | 20 | 0 | 0.0 | 0.0 | 360.60 | 0.00 | 0.00 | 75 | 1018.6 |
| 20260831235212 | 20 | 0 | 0.0 | 0.0 | 360.60 | 0.00 | 0.00 | 75 | 1018.5 |
| 20260831234714 | 20 | 0 | 0.0 | 0.0 | 360.60 | 0.00 | 0.00 | 74 | 1018.5 |
| 20260831234212 | 20 | 274 | 0.0 | 1.6 | 360.60 | 0.00 | 0.00 | 74 | 1018.6 |
| 20260831233213 | 20 | 290 | 1.6 | 3.2 | 360.60 | 0.00 | 0.00 | 74 | 1018.8 |
| 20260831232212 | 21 | 277 | 1.6 | 3.2 | 360.60 | 0.00 | 0.00 | 73 | 1018.9 |
| 20260831231714 | 21 | 285 | 1.6 | 3.2 | 360.60 | 0.00 | 0.00 | 73 | 1018.8 |
| 20260831231212 | 21 | 284 | 0.0 | 0.0 | 360.60 | 0.00 | 0.00 | 71 | 1018.9 |
| 20260831230213 | 21 | 0 | 0.0 | 0.0 | 360.60 | 0.00 | 0.00 | 69 | 1019.0 |
| 20260831225212 | 22 | 262 | 0.0 | 0.0 | 360.60 | 0.00 | 0.00 | 67 | 1019.1 |
| 20260831224717 | 22 | 0 | 0.0 | 0.0 | 360.60 | 0.00 | 0.00 | 66 | 1019.0 |
| 20260831223213 | 23 | 0 | 0.0 | 0.0 | 360.60 | 0.00 | 0.00 | 62 | 1019.0 |
| 20260831221212 | 25 | 308 | 0.0 | 8.0 | 360.60 | 0.00 | 0.00 | 57 | 1019.0 |
| 20260831220213 | 25 | 163 | 3.2 | 6.4 | 360.60 | 0.00 | 0.00 | 57 | 1019.0 |
| 20260831215212 | 25 | 221 | 1.6 | 9.7 | 360.60 | 0.00 | 0.00 | 56 | 1019.0 |
| 20260831214717 | 25 | 314 | 4.8 | 6.4 | 360.60 | 0.00 | 0.00 | 55 | 1018.9 |
| 20260831213213 | 25 | 160 | 4.8 | 9.7 | 360.60 | 0.00 | 0.00 | 55 | 1018.9 |
| 20260831212212 | 24 | 207 | 4.8 | 11.3 | 360.60 | 0.00 | 0.00 | 57 | 1019.0 |
| 20260831211714 | 24 | 207 | 3.2 | 8.0 | 360.60 | 0.00 | 0.00 | 57 | 1019.0 |
| 20260831211212 | 24 | 187 | 6.4 | 9.7 | 360.60 | 0.00 | 0.00 | 57 | 1019.2 |
| 20260831210213 | 24 | 205 | 6.4 | 9.7 | 360.60 | 0.00 | 0.00 | 59 | 1019.1 |
| 20260831205212 | 24 | 233 | 0.0 | 6.4 | 360.60 | 0.00 | 0.00 | 58 | 1019.2 |
| 20260831204716 | 25 | 162 | 4.8 | 8.0 | 360.60 | 0.00 | 0.00 | 57 | 1019.3 |
| 20260831204212 | 25 | 183 | 1.6 | 8.0 | 360.60 | 0.00 | 0.00 | 57 | 1019.3 |
| 20260831203712 | 25 | 218 | 0.0 | 6.4 | 360.60 | 0.00 | 0.00 | 55 | 1019.3 |
| 20260831203213 | 25 | 284 | 1.6 | 6.4 | 360.60 | 0.00 | 0.00 | 53 | 1019.3 |
| 20260831201717 | 26 | 217 | 0.0 | 6.4 | 360.60 | 0.00 | 0.00 | 49 | 1019.3 |
| 20260831201212 | 26 | 304 | 3.2 | 11.3 | 360.60 | 0.00 | 0.00 | 46 | 1019.2 |
| 20260831200213 | 26 | 148 | 3.2 | 20.9 | 360.60 | 0.00 | 0.00 | 47 | 1019.1 |
| 20260831195212 | 26 | 309 | 3.2 | 11.3 | 360.60 | 0.00 | 0.00 | 48 | 1019.3 |
| 20260831193213 | 26 | 214 | 4.8 | 9.7 | 360.60 | 0.00 | 0.00 | 44 | 1019.5 |
| 20260831192212 | 26 | 142 | 9.7 | 11.3 | 360.60 | 0.00 | 0.00 | 45 | 1019.5 |
| 20260831191212 | 25 | 215 | 8.0 | 16.1 | 360.60 | 0.00 | 0.00 | 48 | 1019.7 |
| 20260831190213 | 25 | 217 | 3.2 | 6.4 | 360.60 | 0.00 | 0.00 | 49 | 1020.0 |
| 20260831185212 | 25 | 200 | 4.8 | 8.0 | 360.60 | 0.00 | 0.00 | 49 | 1019.9 |
| 20260831183217 | 26 | 190 | 1.6 | 8.0 | 360.60 | 0.00 | 0.00 | 49 | 1019.9 |
| 20260831181212 | 25 | 181 | 6.4 | 8.0 | 360.60 | 0.00 | 0.00 | 49 | 1020.2 |
| 20260831180213 | 25 | 288 | 4.8 | 12.9 | 360.60 | 0.00 | 0.00 | 46 | 1020.3 |
| 20260831174212 | 25 | 283 | 6.4 | 11.3 | 360.60 | 0.00 | 0.00 | 44 | 1020.3 |
| 20260831173212 | 25 | 293 | 4.8 | 6.4 | 360.60 | 0.00 | 0.00 | 46 | 1020.3 |
| 20260831171712 | 25 | 278 | 4.8 | 8.0 | 360.60 | 0.00 | 0.00 | 48 | 1020.8 |
| 20260831170212 | 24 | 145 | 3.2 | 4.8 | 360.60 | 0.00 | 0.00 | 52 | 1020.8 |
| 20260831165712 | 24 | 55 | 1.6 | 4.8 | 360.60 | 0.00 | 0.00 | 51 | 1020.9 |
| 20260831165212 | 23 | 25 | 3.2 | 8.0 | 360.60 | 0.00 | 0.00 | 47 | 1020.9 |
| 20260831164212 | 23 | 0 | 1.6 | 0.0 | 360.60 | 0.00 | 0.00 | 50 | 1021.0 |
| 20260831163712 | 23 | 7 | 0.0 | 3.2 | 360.60 | 0.00 | 0.00 | 49 | 1021.1 |
| 20260831163212 | 23 | 290 | 0.0 | 3.2 | 360.60 | 0.00 | 0.00 | 52 | 1021.1 |
| 20260831162712 | 23 | 45 | 0.0 | 1.6 | 360.60 | 0.00 | 0.00 | 49 | 1021.1 |
| 20260831162212 | 23 | 311 | 0.0 | 6.4 | 360.60 | 0.00 | 0.00 | 47 | 1021.2 |
| 20260831161212 | 23 | 48 | 0.0 | 4.8 | 360.60 | 0.00 | 0.00 | 49 | 1021.2 |
| 20260831160212 | 22 | 190 | 0.0 | 4.8 | 360.60 | 0.00 | 0.00 | 51 | 1021.3 |
| 20260831155713 | 22 | 316 | 1.6 | 6.4 | 360.60 | 0.00 | 0.00 | 46 | 1021.3 |
| 20260831155212 | 22 | 145 | 1.6 | 4.8 | 360.60 | 0.00 | 0.00 | 53 | 1021.2 |
| 20260831154720 | 22 | 301 | 0.0 | 8.0 | 360.60 | 0.00 | 0.00 | 50 | 1021.3 |
| 20260831154212 | 22 | 300 | 3.2 | 3.2 | 360.60 | 0.00 | 0.00 | 49 | 1021.3 |
| 20260831153245 | 22 | 280 | 4.8 | 6.4 | 360.60 | 0.00 | 0.00 | 48 | 1021.4 |
| 20260831153212 | 22 | 280 | 4.8 | 6.4 | 360.60 | 0.00 | 0.00 | 48 | 1021.4 |
| 20260831152712 | 23 | 115 | 0.0 | 4.8 | 360.60 | 0.00 | 0.00 | 51 | 1021.4 |
| 20260831152212 | 22 | 115 | 3.2 | 6.4 | 360.60 | 0.00 | 0.00 | 55 | 1021.4 |
| 20260831151212 | 22 | 139 | 1.6 | 4.8 | 360.60 | 0.00 | 0.00 | 57 | 1021.4 |
| 20260831150213 | 22 | 172 | 0.0 | 3.2 | 360.60 | 0.00 | 0.00 | 59 | 1021.4 |
| 20260831145212 | 21 | 148 | 3.2 | 3.2 | 360.60 | 0.00 | 0.00 | 59 | 1021.5 |
| 20260831144714 | 21 | 128 | 0.0 | 3.2 | 360.60 | 0.00 | 0.00 | 60 | 1021.5 |
| 20260831144212 | 21 | 212 | 1.6 | 4.8 | 360.60 | 0.00 | 0.00 | 59 | 1021.5 |
| 20260831143212 | 21 | 302 | 0.0 | 1.6 | 360.60 | 0.00 | 0.00 | 63 | 1021.6 |
| 20260831142712 | 20 | 256 | 1.6 | 4.8 | 360.60 | 0.00 | 0.00 | 63 | 1021.7 |
| 20260831142212 | 20 | 287 | 3.2 | 6.4 | 360.60 | 0.00 | 0.00 | 60 | 1021.7 |
| 20260831141712 | 20 | 291 | 0.0 | 6.4 | 360.60 | 0.00 | 0.00 | 62 | 1021.7 |
| 20260831141212 | 20 | 257 | 4.8 | 6.4 | 360.60 | 0.00 | 0.00 | 61 | 1021.7 |
| 20260831140711 | 20 | 294 | 1.6 | 8.0 | 360.60 | 0.00 | 0.00 | 67 | 1021.7 |
| 20260831140212 | 19 | 248 | 0.0 | 6.4 | 360.60 | 0.00 | 0.00 | 66 | 1021.7 |
| 20260831135712 | 19 | 257 | 4.8 | 6.4 | 360.60 | 0.00 | 0.00 | 67 | 1021.6 |
| 20260831135212 | 19 | 257 | 3.2 | 3.2 | 360.60 | 0.00 | 0.00 | 67 | 1021.6 |
| 20260831134212 | 18 | 167 | 1.6 | 3.2 | 360.60 | 0.00 | 0.00 | 69 | 1021.6 |
| 20260831133711 | 18 | 153 | 0.0 | 3.2 | 360.60 | 0.00 | 0.00 | 72 | 1021.6 |
| 20260831133212 | 18 | 174 | 1.6 | 6.4 | 360.60 | 0.00 | 0.00 | 73 | 1021.6 |
| 20260831132711 | 17 | 156 | 4.8 | 4.8 | 360.60 | 0.00 | 0.00 | 74 | 1021.5 |
| 20260831132211 | 17 | 44 | 0.0 | 4.8 | 360.60 | 0.00 | 0.00 | 78 | 1021.5 |
| 20260831131712 | 17 | 0 | 0.0 | 0.0 | 360.60 | 0.00 | 0.00 | 79 | 1021.4 |
| 20260831131211 | 17 | 0 | 0.0 | 0.0 | 360.60 | 0.00 | 0.00 | 80 | 1021.5 |
| 20260831130711 | 17 | 0 | 0.0 | 0.0 | 360.60 | 0.00 | 0.00 | 82 | 1021.5 |
| 20260831130213 | 16 | 0 | 0.0 | 0.0 | 360.60 | 0.00 | 0.00 | 82 | 1021.5 |
| 20260831125711 | 16 | 0 | 0.0 | 0.0 | 360.60 | 0.00 | 0.00 | 88 | 1021.5 |
| 20260831124211 | 15 | 21 | 1.6 | 1.6 | 360.60 | 0.00 | 0.00 | 96 | 1021.5 |
| 20260831123711 | 15 | 0 | 0.0 | 0.0 | 360.60 | 0.00 | 0.00 | 97 | 1021.5 |
| 20260831123212 | 15 | 0 | 0.0 | 0.0 | 360.60 | 0.00 | 0.00 | 97 | 1021.5 |
| 20260831122211 | 15 | 0 | 0.0 | 0.0 | 360.60 | 0.00 | 0.00 | 97 | 1021.5 |
| 20260831121712 | 15 | 0 | 0.0 | 0.0 | 360.60 | 0.00 | 0.00 | 97 | 1021.4 |
| 20260831121211 | 15 | 63 | 0.0 | 3.2 | 360.60 | 0.00 | 0.00 | 97 | 1021.4 |
| 20260831120212 | 15 | 0 | 0.0 | 0.0 | 360.60 | 0.00 | 0.00 | 97 | 1021.2 |
| 20260831114211 | 14 | 0 | 0.0 | 0.0 | 360.60 | 0.00 | 0.00 | 97 | 1021.1 |
| 20260831113711 | 14 | 0 | 0.0 | 0.0 | 360.60 | 0.00 | 0.00 | 97 | 1021.1 |
| 20260831113212 | 13 | 0 | 0.0 | 0.0 | 360.60 | 0.00 | 0.00 | 96 | 1021.0 |
| 20260831112711 | 13 | 0 | 0.0 | 0.0 | 360.60 | 0.00 | 0.00 | 96 | 1021.0 |
| 20260831112211 | 13 | 0 | 0.0 | 0.0 | 360.60 | 0.00 | 0.00 | 96 | 1021.0 |
| 20260831111722 | 13 | 0 | 0.0 | 0.0 | 360.60 | 0.00 | 0.00 | 96 | 1021.0 |
| 20260831111211 | 13 | 0 | 0.0 | 0.0 | 360.60 | 0.00 | 0.00 | 96 | 1020.9 |
| 20260831110711 | 13 | 0 | 0.0 | 0.0 | 360.60 | 0.00 | 0.00 | 96 | 1020.8 |
| 20260831110212 | 13 | 0 | 0.0 | 0.0 | 360.60 | 0.00 | 0.00 | 96 | 1020.8 |
| 20260831105711 | 13 | 0 | 0.0 | 0.0 | 360.60 | 0.00 | 0.00 | 96 | 1020.7 |
| 20260831105211 | 13 | 0 | 0.0 | 0.0 | 360.60 | 0.00 | 0.00 | 96 | 1020.7 |
| 20260831103711 | 13 | 0 | 0.0 | 0.0 | 360.60 | 0.00 | 0.00 | 96 | 1020.5 |
| 20260831103212 | 13 | 0 | 0.0 | 0.0 | 360.60 | 0.00 | 0.00 | 96 | 1020.6 |
| 20260831101716 | 14 | 0 | 0.0 | 0.0 | 360.60 | 0.00 | 0.00 | 96 | 1020.4 |
| 20260831100711 | 14 | 0 | 0.0 | 0.0 | 360.60 | 0.00 | 0.00 | 96 | 1020.3 |
| 20260831100220 | 14 | 0 | 0.0 | 0.0 | 360.60 | 0.00 | 0.00 | 95 | 1020.3 |
| 20260831095212 | 14 | 0 | 0.0 | 0.0 | 360.60 | 0.00 | 0.00 | 95 | 1020.2 |
| 20260831094211 | 15 | 0 | 0.0 | 0.0 | 360.60 | 0.00 | 0.00 | 95 | 1020.1 |
| 20260831091712 | 15 | 0 | 0.0 | 0.0 | 360.60 | 0.00 | 0.00 | 94 | 1019.8 |
| 20260831090222 | 15 | 0 | 0.0 | 0.0 | 360.60 | 0.00 | 0.00 | 95 | 1019.6 |
| 20260831085711 | 15 | 0 | 0.0 | 0.0 | 360.60 | 0.00 | 0.00 | 94 | 1019.5 |
| 20260831084726 | 15 | 287 | 0.0 | 1.6 | 360.60 | 0.00 | 0.00 | 93 | 1019.5 |
| 20260831083223 | 16 | 293 | 3.2 | 6.4 | 360.60 | 0.00 | 0.00 | 91 | 1019.3 |
| 20260831082711 | 16 | 293 | 4.8 | 4.8 | 360.60 | 0.00 | 0.00 | 90 | 1019.4 |
| 20260831082211 | 16 | 165 | 0.0 | 3.2 | 360.60 | 0.00 | 0.00 | 89 | 1019.4 |
| 20260831081712 | 16 | 287 | 0.0 | 3.2 | 360.60 | 0.00 | 0.00 | 89 | 1019.2 |
| 20260831080219 | 17 | 281 | 3.2 | 3.2 | 360.60 | 0.00 | 0.00 | 87 | 1019.1 |
| 20260831075712 | 17 | 278 | 3.2 | 4.8 | 360.60 | 0.00 | 0.00 | 87 | 1019.1 |
| 20260831074720 | 17 | 346 | 1.6 | 6.4 | 360.60 | 0.00 | 0.00 | 87 | 1019.0 |
| 20260831073218 | 17 | 318 | 0.0 | 6.4 | 360.60 | 0.00 | 0.00 | 88 | 1019.0 |
| 20260831071712 | 17 | 300 | 0.0 | 1.6 | 360.60 | 0.00 | 0.00 | 88 | 1019.0 |
| 20260831070711 | 17 | 0 | 0.0 | 0.0 | 360.60 | 0.00 | 0.00 | 88 | 1018.9 |
| 20260831070218 | 17 | 285 | 0.0 | 3.2 | 360.60 | 0.00 | 0.00 | 88 | 1019.0 |
| 20260831065711 | 17 | 295 | 1.6 | 4.8 | 360.60 | 0.00 | 0.00 | 88 | 1018.9 |
| 20260831065211 | 17 | 300 | 3.2 | 1.6 | 360.60 | 0.00 | 0.00 | 89 | 1018.8 |
| 20260831064718 | 17 | 304 | 1.6 | 3.2 | 360.60 | 0.00 | 0.00 | 88 | 1018.9 |
| 20260831063217 | 17 | 0 | 0.0 | 0.0 | 360.60 | 0.00 | 0.00 | 87 | 1018.9 |
| 20260831061711 | 17 | 315 | 1.6 | 3.2 | 360.60 | 0.00 | 0.00 | 87 | 1019.0 |
| 20260831060226 | 17 | 300 | 1.6 | 4.8 | 360.60 | 0.00 | 0.00 | 87 | 1018.8 |
| 20260831055711 | 17 | 322 | 0.0 | 1.6 | 360.60 | 0.00 | 0.00 | 87 | 1018.8 |
| 20260831054722 | 17 | 281 | 1.6 | 4.8 | 360.60 | 0.00 | 0.00 | 86 | 1018.6 |
| 20260831053216 | 18 | 0 | 0.0 | 0.0 | 360.60 | 0.00 | 0.00 | 83 | 1018.6 |
| 20260831051717 | 18 | 0 | 0.0 | 0.0 | 360.60 | 0.00 | 0.00 | 82 | 1018.6 |
| 20260831050212 | 19 | 0 | 0.0 | 0.0 | 360.60 | 0.00 | 0.00 | 79 | 1018.5 |
| 20260831045211 | 19 | 0 | 0.0 | 0.0 | 360.60 | 0.00 | 0.00 | 77 | 1018.3 |
| 20260831044211 | 20 | 0 | 0.0 | 0.0 | 360.60 | 0.00 | 0.00 | 76 | 1018.2 |
| 20260831043211 | 20 | 0 | 0.0 | 0.0 | 360.60 | 0.00 | 0.00 | 74 | 1018.1 |
| 20260831042711 | 20 | 0 | 0.0 | 0.0 | 360.60 | 0.00 | 0.00 | 73 | 1018.0 |
| 20260831041718 | 20 | 0 | 0.0 | 0.0 | 360.60 | 0.00 | 0.00 | 72 | 1018.0 |
| 20260831041211 | 20 | 322 | 0.0 | 3.2 | 360.60 | 0.00 | 0.00 | 72 | 1018.0 |
| 20260831040212 | 21 | 277 | 0.0 | 9.7 | 360.60 | 0.00 | 0.00 | 72 | 1018.0 |
| 20260831035711 | 21 | 38 | 0.0 | 3.2 | 360.60 | 0.00 | 0.00 | 72 | 1017.9 |
| 20260831034712 | 21 | 0 | 0.0 | 0.0 | 360.60 | 0.00 | 0.00 | 71 | 1017.9 |
| 20260831034211 | 21 | 8 | 0.0 | 4.8 | 360.60 | 0.00 | 0.00 | 72 | 1017.8 |
| 20260831033211 | 21 | 276 | 3.2 | 6.4 | 360.60 | 0.00 | 0.00 | 71 | 1017.9 |
| 20260831031714 | 21 | 0 | 0.0 | 0.0 | 360.60 | 0.00 | 0.00 | 73 | 1018.0 |
| 20260831030211 | 21 | 333 | 0.0 | 4.8 | 360.60 | 0.00 | 0.00 | 74 | 1017.9 |
| 20260831025710 | 21 | 302 | 3.2 | 9.7 | 360.60 | 0.00 | 0.00 | 72 | 1017.8 |